Weather in Agdash

Azerbaijan     40°38′46″N   47°28′25″E
temp.,
°C
wind,
m/s
gust,
m/s
humid.,
%
clouds,
%
prec.,
mm/h
press.,
hPa
HPBL,
m
14 may, fri
fri1401:00+19e22585 0.0 101619
04:00+18nne226328 0.0 101611
07:00+20n115724 0.0 101751
10:00+25ssw21435 0.0 1017714
13:00+30sse44303 0.0 10161474
16:00+31se44230 0.0 10131898
19:00+27se36340 0.0 1014123
22:00+22e47430 0.0 1016151
15 may, sat
sat1501:00+19ene22480 0.0 101617
04:00+18ne22480 0.0 101513
07:00+20n11480 0.0 101649
10:00+26ssw21300 0.0 1016720
13:00+30sse43210 0.0 10151634
16:00+31se44181 0.0 10132384
19:00+27se3326100 0.0 101335
22:00+22ene34274 0.0 101546
16 may, sun
sun1601:00+19ne22333 0.0 101417
04:00+18ne22354 0.0 101416
07:00+20ene11340 0.0 101438
10:00+26sse23220 0.0 1014663
13:00+30se55150 0.0 10121965
16:00+31se55140 0.0 10102424
19:00+28se36250 0.0 1010124
22:00+21e47345 0.0 1012132
17 may, mon
mon1701:00+19nne11375 0.0 101212
04:00+18n21375 0.0 101111
07:00+20nne123849 0.0 101154
10:00+26wsw2227100 0.0 1010770
13:00+29sw22225 0.0 10091367
16:00+32sw32202 0.0 10071526
19:00+29s352760 0.0 1007112
22:00+24ene223178 0.0 100814
18 may, tue
tue1801:00+21nne11477 0.0 100911
04:00+19nne2250100 0.0 100818
07:00+21sw2249100 0.0 1008107
10:00+25se3440100 0.1 1009517
13:00+27s453699 0.0 1009834
16:00+27ese6736100 0.0 10091225
19:00+26ssw334561 0.0 1009119
22:00+18nw478087 0.3 1013168